Dayton Wright, OH

7:49 AM EST on February 23, 2018 (GMT -0500)
Dayton-Wright Brothers

Weather History for KMGY - May, 2014

Change the Weather History Date:

Monday, May 26, 2014

  Actual Average (KFFO) Record (KFFO)
Temperature  
Mean Temperature 70 °F -  
Max Temperature 84 °F 71 °F 92 °F (2012)
Min Temperature 57 °F 51 °F 44 °F (1999)
Cooling Degree Days 6    
Growing Degree Days 20 (Base 50)    
Moisture  
Dew Point 58 °F    
Average Humidity 60    
Maximum Humidity 84    
Minimum Humidity 48    
Precipitation  
Precipitation 0.00 in - - ()
Sea Level Pressure  
Sea Level Pressure 30.07 in    
Wind  
Wind Speed 4 mph (SW)    
Max Wind Speed 12 mph    
Max Gust Speed -    
Visibility 10 miles    
Events      
Averages and records for this station are not official NWS values.
T = Trace of Precipitation, MM = Missing Value Source: NWS Daily Summary

Daily Weather History Graph

Daily Weather History Graph

Search for Another Location

Airport or City:

Trip Planner

Search our weather history database for the weather conditions in past years. The results will help you decide how hot, cold, wet, or windy it might be!

Date:

Astronomy

May. 26, 2014 Rise Set
Actual Time 6:14 AM EDT 8:53 PM EDT
Civil Twilight 5:43 AM EDT 9:25 PM EDT
Nautical Twilight 5:03 AM EDT 10:04 PM EDT
Astronomical Twilight 4:19 AM EDT 10:49 PM EDT
Moon 4:55 AM EDT (5/26) 6:56 PM EDT (5/26)
Length of Visible Light 15h 42m
Length of Day
14h 39m
Waning Crescent, 5% of the Moon is Illuminated
May 26
Waning Crescent
May 28
New
Jun 5
First Quarter
Jun 13
Full
Jun 19
Last Quarter

Hourly Weather History & Observations

Time (EDT) Temp. Heat Index Dew Point Humidity Pressure Visibility Wind Dir Wind Speed Gust Speed Precip Events Conditions
12:53 AM 66.0 °F - 48.9 °F 54% 30.09 in 10.0 mi South 3.5 mph - N/A   Clear
1:53 AM 64.9 °F - 48.9 °F 56% 30.09 in 10.0 mi South 4.6 mph - N/A   Clear
2:53 AM 62.1 °F - 50.0 °F 65% 30.10 in 10.0 mi Calm Calm - N/A   Clear
3:53 AM 60.1 °F - 51.1 °F 72% 30.09 in 10.0 mi Calm Calm - N/A   Clear
4:53 AM 57.0 °F - 51.1 °F 81% 30.10 in 10.0 mi Calm Calm - N/A   Clear
5:53 AM 57.9 °F - 52.0 °F 81% 30.11 in 10.0 mi Calm Calm - N/A   Clear
6:53 AM 57.9 °F - 53.1 °F 84% 30.12 in 10.0 mi Calm Calm - N/A   Clear
7:53 AM 63.0 °F - 57.0 °F 81% 30.13 in 10.0 mi South 3.5 mph - N/A   Clear
8:53 AM 68.0 °F - 57.9 °F 70% 30.13 in 10.0 mi SSW 5.8 mph - N/A   Clear
9:53 AM 71.1 °F - 57.0 °F 61% 30.13 in 10.0 mi South 5.8 mph - N/A   Clear
10:53 AM 75.0 °F - 55.0 °F 50% 30.12 in 10.0 mi WSW 6.9 mph - N/A   Clear
11:53 AM 78.1 °F - 57.0 °F 48% 30.12 in 10.0 mi SW 6.9 mph - N/A   Partly Cloudy
12:53 PM 80.1 °F 81.1 °F 61.0 °F 52% 30.10 in 10.0 mi WSW 8.1 mph - N/A   Clear
1:53 PM 82.0 °F 83.0 °F 62.1 °F 51% 30.08 in 10.0 mi WSW 11.5 mph - N/A   Partly Cloudy
2:53 PM 82.9 °F 84.0 °F 63.0 °F 51% 30.06 in 10.0 mi Variable 6.9 mph - N/A   Scattered Clouds
3:53 PM 84.9 °F 85.9 °F 63.0 °F 48% 30.03 in 10.0 mi West 6.9 mph - N/A   Scattered Clouds
4:53 PM 84.0 °F 85.4 °F 64.0 °F 51% 30.01 in 10.0 mi SW 11.5 mph - N/A   Scattered Clouds
5:53 PM 82.9 °F 84.0 °F 63.0 °F 51% 30.00 in 10.0 mi WSW 9.2 mph - N/A   Clear
6:53 PM 82.9 °F 83.7 °F 62.1 °F 49% 29.98 in 10.0 mi SW 9.2 mph - N/A   Partly Cloudy
7:53 PM 82.0 °F 83.0 °F 62.1 °F 51% 29.99 in 10.0 mi SW 5.8 mph - N/A   Clear
8:53 PM 80.1 °F 81.2 °F 62.1 °F 54% 29.99 in 10.0 mi SW 5.8 mph - N/A   Partly Cloudy
9:53 PM 78.1 °F - 63.0 °F 60% 30.00 in 10.0 mi SSW 4.6 mph - N/A   Mostly Cloudy
10:53 PM 77.0 °F - 63.0 °F 62% 30.01 in 10.0 mi SSW 6.9 mph - N/A   Partly Cloudy
11:53 PM 75.9 °F - 64.0 °F 67% 30.01 in 10.0 mi SW 4.6 mph - N/A   Overcast